{"data":{"norad_id":58955,"intl_designator":"2024-028A","name":"HBTSS-SV2","alt_names":[],"object_type":"PAYLOAD","status":"ACTIVE","operator":null,"country":"US","launch_date":"2024-02-14","launch_site_code":"AFETR","launch_vehicle":null,"mission":null,"orbit_class":"UNKNOWN","rcs_meters":null,"size_class":null,"mass_kg":null,"dimensions":null,"purposes":[],"wikipedia_slug":null,"has_3d_model":false,"image_url":null,"decayed_at":null,"tle_current":{"epoch":"2026-05-25T01:11:44.234592Z","epoch_age_seconds":74010,"freshness":"FRESH","line1":"1 58955U 24028A   26145.04981753 -.00000008  00000+0  78469-4 0  9999","line2":"2 58955  39.9891 150.1979 0018711 107.7567 252.5223 13.70466127113896","mean_motion":13.70466127,"eccentricity":0.0018711,"inclination_deg":39.9891,"raan_deg":150.1979,"arg_perigee_deg":107.7567,"mean_anomaly_deg":252.5223,"bstar":7.8469e-5,"rev_number":11389,"period_min":105.07373890022,"perigee_km":984.09673420697,"apogee_km":1011.6993325088,"semimajor_km":7376.0350333579,"source":"CELESTRAK","updated_at":"2026-05-25T13:38:01.087205Z"}}}